Tracking 27122 objects as of 25-Mar-2023
HD Live streaming from Space Station
objects crossing your sky now

PSLV R/B

Track PSLV R/B now!
10-day predictions


NORAD ID: 29713
Int'l Code: 2007-001E
Perigee: 594.3 km
Apogee: 629.4 km
Inclination: 98.0 °
Period: 96.8 minutes
Semi major axis: 6982 km
RCS: 9.9132 m2 (large)
Launch date: January 10, 2007
Source: India (IND)
Launch site: SRIHARIKOTA (SRI)

Note: This is a ROCKET BODY
Your satellite tracking list
Your tracking list is empty




NASA's NSSDC Master Catalog

Two Line Element Set (TLE):
1 29713U 07001E   23083.93790213  .00005702  00000-0  62631-3 0  9995
2 29713  98.0340  73.1543 0025138  41.1834 319.1273 14.87833456876771
Source of the keplerian elements: AFSPC